sat.trackr.live / text

‹ back to catalog

STARLINK-3554

NORAD 51872 · 2022-022W

PAYLOAD ACTIVE UNKNOWN

§ Identity

Operator
Country
US
Launch date
2022-03-03
Launch site
AFETR
Launch vehicle
Mass (kg)
RCS (m²)

Purposes: comms

External: N2YO · Heavens-Above · Gunter

§ Orbital elements

Epoch: 2026-05-25T01:30:27.303264Z

Period
95.44 min
Inclination
53.2150°
Eccentricity
0.0001079
Mean motion
15.08838183 rev/d
Perigee alt
539.0 km
Apogee alt
540.5 km
Semi-major
6,917.9 km
B*
9.9101e-5
RAAN
26.2683°
Arg perigee
80.6924°
Mean anomaly
279.4190°
Rev number
23,464

§ Raw data

STARLINK-35541 51872U 22022W   26145.06281601  .00001290  00000+0  99101-4 0  99982 51872  53.2150  26.2683 0001079  80.6924 279.4190 15.08838183234640

JSON: /api/v1/satellites/51872 · /tle

For live sub-satellite position, see the globe view (requires WebGL).

§ Visibility from observer

Set your observer location to see the next 7 days of passes ≥ 10°. The values pass through the URL so the page stays shareable.

No JS? Fill the form by hand. The geolocation button needs JavaScript.